Weather History for Russellville, AR

Change the Weather History Date:

Monday, July 22, 2013

  Actual Average (KHOT) Record (KHOT)
Temperature  
Mean Temperature 86 °F -  
Max Temperature 98 °F 95 °F 105 °F (1974)
Min Temperature 75 °F 69 °F 56 °F (1970)
Cooling Degree Days 21    
Growing Degree Days 36 (Base 50)    
Moisture  
Dew Point 68 °F    
Average Humidity 65    
Maximum Humidity 87    
Minimum Humidity 40    
Precipitation  
Precipitation 0.00 in - - ()
Sea Level Pressure  
Sea Level Pressure 29.89 in    
Wind  
Wind Speed 3 mph (WNW)    
Max Wind Speed 9 mph    
Max Gust Speed -    
Visibility 10 miles    
Events Thunderstorm    
Averages and records for this station are not official NWS values.
T = Trace of Precipitation, MM = Missing Value Source: NWS Daily Summary

Daily Weather History Graph

Daily Weather History Graph

Search for Another Location

Airport:

Trip Planner

Search our weather history database for the weather conditions in past years. The results will help you decide how hot, cold, wet, or windy it might be!

Date:

Astronomy

Jul. 22, 2013 Rise Set
Actual Time 6:14 AM CDT 8:23 PM CDT
Civil Twilight 5:45 AM CDT 8:51 PM CDT
Nautical Twilight 5:10 AM CDT 9:26 PM CDT
Astronomical Twilight 4:32 AM CDT 10:04 PM CDT
Moon 8:13 PM CDT (7/22) 6:08 AM CDT (7/22)
Length of Visible Light 15h 06m
Length of Day
14h 09m
Full, 100% of the Moon is Illuminated
Jul 22
Full
Jul 22
Full
Jul 29
Last Quarter
Aug 6
New
Aug 14
First Quarter

Hourly Weather History & Observations

Time (CDT) Temp. Heat Index Dew Point Humidity Pressure Visibility Wind Dir Wind Speed Gust Speed Precip Events Conditions
12:53 AM 78.1 °F - 72.0 °F 81% 29.85 in 10.0 mi Calm Calm - N/A   Clear
1:53 AM 77.0 °F - 72.0 °F 84% 29.84 in 10.0 mi Calm Calm - N/A   Clear
2:53 AM 75.9 °F - 72.0 °F 87% 29.84 in 10.0 mi Calm Calm - N/A   Clear
3:53 AM 75.9 °F - 72.0 °F 87% 29.85 in 10.0 mi WNW 4.6 mph - N/A   Partly Cloudy
4:53 AM 75.9 °F - 72.0 °F 87% 29.85 in 10.0 mi SSW 3.5 mph - N/A   Partly Cloudy
5:53 AM 75.9 °F - 72.0 °F 87% 29.85 in 10.0 mi Calm Calm - N/A   Clear
6:53 AM 75.9 °F - 72.0 °F 87% 29.87 in 10.0 mi Calm Calm - N/A   Clear
7:53 AM 81.0 °F 85.2 °F 72.0 °F 74% 29.91 in 10.0 mi West 3.5 mph - N/A   Partly Cloudy
8:35 AM 80.6 °F 83.2 °F 68.0 °F 65% 29.97 in 10.0 mi NNE 8.1 mph - N/A   Overcast
8:53 AM 79.0 °F - 68.0 °F 69% 29.96 in 10.0 mi NNE 8.1 mph - N/A   Overcast
9:50 AM 78.8 °F - 66.2 °F 65% 29.98 in 10.0 mi Calm Calm - N/A Thunderstorm Overcast
9:53 AM 79.0 °F - 66.0 °F 64% 29.96 in 10.0 mi Variable 3.5 mph - N/A Thunderstorm Overcast
10:05 AM 78.8 °F - 66.2 °F 65% 29.96 in 10.0 mi Variable 3.5 mph - N/A   Overcast
10:53 AM 82.0 °F 84.5 °F 66.9 °F 60% 29.93 in 10.0 mi Variable 4.6 mph - N/A   Partly Cloudy
11:53 AM 89.1 °F 91.0 °F 64.9 °F 45% 29.91 in 10.0 mi Variable 6.9 mph - N/A   Clear
12:53 PM 93.0 °F 96.4 °F 66.9 °F 42% 29.91 in 10.0 mi SE 5.8 mph - N/A   Clear
1:53 PM 95.0 °F 99.5 °F 68.0 °F 41% 29.90 in 10.0 mi Variable 6.9 mph - N/A   Partly Cloudy
2:53 PM 97.0 °F 102.8 °F 69.1 °F 40% 29.88 in 10.0 mi West 8.1 mph - N/A   Mostly Cloudy
3:53 PM 93.9 °F 100.3 °F 70.0 °F 46% 29.86 in 10.0 mi Variable 4.6 mph - N/A   Partly Cloudy
4:53 PM 95.0 °F 103.2 °F 72.0 °F 47% 29.87 in 10.0 mi SW 9.2 mph - N/A   Partly Cloudy
5:53 PM 89.1 °F 89.3 °F 62.1 °F 40% 29.86 in 10.0 mi Calm Calm - N/A   Partly Cloudy
6:53 PM 84.0 °F 86.3 °F 66.0 °F 55% 29.83 in 10.0 mi NE 4.6 mph - N/A   Clear
7:53 PM 82.9 °F 84.4 °F 64.0 °F 53% 29.88 in 10.0 mi Variable 3.5 mph - N/A   Clear
8:53 PM 80.1 °F 82.1 °F 66.0 °F 62% 29.87 in 10.0 mi Calm Calm - N/A   Clear
9:53 PM 77.0 °F - 64.9 °F 66% 29.86 in 10.0 mi Calm Calm - N/A   Clear
10:53 PM 75.9 °F - 66.0 °F 71% 29.87 in 10.0 mi Calm Calm - N/A   Clear
11:53 PM 75.9 °F - 66.9 °F 74% 29.87 in 10.0 mi Calm Calm - N/A   Clear